{"data":{"norad_id":69004,"epoch":"2026-05-25T04:33:19.082880Z","epoch_age_seconds":48706,"freshness":"FRESH","line1":"1 69004U 26100AA  26145.18980420  .00002783  00000+0  13229-3 0  9997","line2":"2 69004  97.4072  43.4207 0006150  93.0931 267.1008 15.20009807  3321","mean_motion":15.20009807,"eccentricity":0.000615,"inclination_deg":97.4072,"raan_deg":43.4207,"arg_perigee_deg":93.0931,"mean_anomaly_deg":267.1008,"bstar":0.00013229,"rev_number":332,"period_min":94.736230869595,"perigee_km":501.5773757173,"apogee_km":510.0446317619,"semimajor_km":6883.9480037396,"source":"CELESTRAK","updated_at":"2026-05-25T13:38:09.037777Z"}}